sat.trackr.live / text

‹ back to catalog

ONEWEB-0177

NORAD 48074 · 2021-025AJ

PAYLOAD ACTIVE UNKNOWN

§ Identity

Operator
Country
UK
Launch date
2021-03-25
Launch site
VOSTO
Launch vehicle
Mass (kg)
RCS (m²)

Purposes: comms

External: N2YO · Heavens-Above · Gunter

§ Orbital elements

Epoch: 2026-09-19T09:44:13.355232Z

Period
109.63 min
Inclination
87.8914°
Eccentricity
0.0001744
Mean motion
13.13470209 rev/d
Perigee alt
1,208.4 km
Apogee alt
1,211.1 km
Semi-major
7,587.9 km
B*
9.1090e-4
RAAN
301.4790°
Arg perigee
102.4667°
Mean anomaly
257.6658°
Rev number
26,604

§ Raw data

ONEWEB-01771 48074U 21025AJ  26262.40571013  .00000345  00000+0  91090-3 0  99952 48074  87.8914 301.4790 0001744 102.4667 257.6658 13.13470209266045

JSON: /api/v1/satellites/48074 · /tle

For live sub-satellite position, see the globe view (requires WebGL).

§ Visibility from observer

Set your observer location to see the next 7 days of passes ≥ 10°. The values pass through the URL so the page stays shareable.

No JS? Fill the form by hand. The geolocation button needs JavaScript.